EW7548 Weather Reports


time (UTC)temp
C
wind
direction
speed
KPH
gust
KPH
rain 1hr
cm
rain 24hr
cm
rain mn
cm
humidity
%
barometer
mb
20260504050112 11 202 0.0 3.2 0.00 0.00 0.00 52 1002.2
20260504044552 11 212 0.0 0.0 0.00 0.00 0.00 51 1002.4
20260504043105 12 212 0.0 0.0 0.00 0.00 0.00 50 1002.6
20260504041549 12 212 0.0 0.0 0.00 0.00 0.00 49 1002.7
20260504040047 12 212 0.0 0.0 0.00 0.00 0.00 49 1003.0
20260504034544 12 212 0.0 0.0 0.00 0.00 0.00 48 1003.3
20260504033043 12 213 0.0 1.6 0.00 0.00 0.00 47 1003.4
20260504031546 12 219 0.0 1.6 0.00 0.00 0.00 47 1003.7
20260504030043 13 213 0.0 3.2 0.00 0.00 0.00 45 1003.7
20260504024540 14 277 3.2 4.8 0.00 0.00 0.00 42 1003.8
20260504023040 15 287 1.6 3.2 0.00 0.00 0.00 40 1003.8
20260504021539 16 297 0.0 1.6 0.00 0.00 0.00 37 1003.8
20260504020038 16 297 0.0 1.6 0.00 0.00 0.00 34 1003.6
20260504014550 16 297 1.6 4.8 0.00 0.00 0.00 34 1003.7
20260504013041 17 297 1.6 4.8 0.00 0.00 0.00 34 1003.7
20260504011539 18 298 0.0 4.8 0.00 0.00 0.00 32 1003.7
20260504010036 18 294 3.2 4.8 0.00 0.00 0.00 30 1003.7
20260504004536 19 304 0.0 3.2 0.00 0.00 0.00 30 1003.6
20260504003037 20 308 3.2 11.3 0.00 0.00 0.00 29 1003.7
20260504001542 20 319 4.8 14.5 0.00 0.00 0.00 29 1003.8
20260504000043 20 306 4.8 14.5 0.00 0.00 0.00 28 1003.7
20260503234532 21 350 4.8 19.3 0.00 0.00 0.00 27 1003.7
20260503233030 21 342 8.0 16.1 0.00 0.00 0.00 26 1003.8
20260503231530 21 322 6.4 17.7 0.00 0.00 0.00 27 1003.9
20260503230028 21 302 11.3 22.5 0.00 0.00 0.00 26 1004.0
20260503224535 22 347 9.7 16.1 0.00 0.00 0.00 27 1003.9
20260503223026 22 314 8.0 20.9 0.00 0.00 0.00 28 1003.7
20260503221526 22 309 14.5 20.9 0.00 0.00 0.00 26 1003.9
20260503220027 22 304 9.7 17.7 0.00 0.00 0.00 30 1003.6
20260503214530 22 284 4.8 19.3 0.00 0.00 0.00 31 1003.8
20260503213025 22 311 12.9 22.5 0.00 0.00 0.00 28 1003.8
20260503211520 22 272 9.7 19.3 0.00 0.00 0.00 30 1003.8
20260503210038 22 271 6.4 16.1 0.00 0.00 0.00 33 1004.0
20260503204517 22 295 12.9 19.3 0.00 0.00 0.00 33 1004.2
20260503203018 21 290 11.3 20.9 0.00 0.00 0.00 33 1004.4
20260503201513 22 337 8.0 22.5 0.00 0.00 0.00 32 1004.5
20260503200015 22 309 16.1 25.7 0.00 0.00 0.00 31 1004.4
20260503194510 22 355 3.2 22.5 0.00 0.00 0.00 31 1004.4
20260503193010 22 333 1.6 20.9 0.00 0.00 0.00 31 1004.7
20260503191505 21 308 16.1 27.4 0.00 0.00 0.00 30 1004.6
20260503190002 21 313 14.5 24.1 0.00 0.00 0.00 33 1004.7
20260503184502 21 323 14.5 24.1 0.00 0.00 0.00 33 1004.6
20260503183107 21 311 4.8 16.1 0.00 0.00 0.00 36 1004.8
20260503181558 21 316 9.7 20.9 0.00 0.00 0.00 37 1005.0
20260503180107 21 346 9.7 20.9 0.00 0.00 0.00 38 1005.1
20260503174554 20 327 4.8 22.5 0.00 0.00 0.00 38 1005.1
20260503173142 21 26 6.4 14.5 0.00 0.00 0.00 41 1005.2
20260503171549 19 302 9.7 20.9 0.00 0.00 0.00 41 1005.3
20260503100114 11 195 1.6 6.4 0.00 0.00 0.00 54 1005.6
20260503090104 12 191 1.6 8.0 0.00 0.00 0.00 51 1006.8
20260503081556 12 190 8.0 16.1 0.00 0.00 0.00 59 1007.5
20260503071544 12 209 1.6 3.2 0.00 0.00 0.00 52 1008.2